This is the latest recevied weather packets stored in our database for station/object W2TAO. If no packets are shown the sender has not sent any weather packets the latest 10 day(s).
| Time | Temp. | Humidity | Pressure | Rain* | Wind** | Luminosity | Snow |
|---|---|---|---|---|---|---|---|
| 1777747044 | 12.78° C | 44% | 1012.9 hPa | 0 mm | - | 311 W/m² | - |
| 1777746740 | 12.22° C | 43% | 1013 hPa | 0 mm | - | 486 W/m² | - |
| 1777746435 | 11.67° C | 43% | 1012.9 hPa | 0 mm | - | 334 W/m² | - |
| 1777746132 | 12.78° C | 39% | 1012.9 hPa | 0 mm | - | 368 W/m² | - |
| 1777745829 | 11.67° C | 43% | 1013.1 hPa | 0 mm | - | 1012 W/m² | - |
| 1777745528 | 11.11° C | 42% | 1013 hPa | 0 mm | - | 623 W/m² | - |
| 1777745224 | 11.11° C | 43% | 1012.9 hPa | 0 mm | - | 276 W/m² | - |
| 1777744922 | 12.22° C | 45% | 1012.8 hPa | 0 mm | - | 270 W/m² | - |
| 1777744621 | 11.67° C | 49% | 1013.1 hPa | 0 mm | - | 257 W/m² | - |
| 1777744316 | 12.22° C | 48% | 1013.1 hPa | 0 mm | - | 364 W/m² | - |
| 1777744014 | 12.22° C | 47% | 1013.1 hPa | 0 mm | - | 1010 W/m² | - |
| 1777743710 | 11.67° C | 46% | 1012.9 hPa | 0 mm | - | 667 W/m² | - |
| 1777743407 | 11.11° C | 44% | 1013 hPa | 0 mm | - | 268 W/m² | - |
| 1777743105 | 11.67° C | 45% | 1013.1 hPa | 0 mm | - | 293 W/m² | - |
| 1777742802 | 12.78° C | 43% | 1012.8 hPa | 0 mm | - | 483 W/m² | - |
| 1777742499 | 12.78° C | 43% | 1013.1 hPa | 0 mm | - | 937 W/m² | - |
| 1777742195 | 11.67° C | 43% | 1013.2 hPa | 0 mm | - | 895 W/m² | - |
| 1777741892 | 11.67° C | 42% | 1013.1 hPa | 0 mm | - | 924 W/m² | - |
| 1777741589 | 12.78° C | 44% | 1013.2 hPa | 0 mm | - | 986 W/m² | - |
| 1777741286 | 12.78° C | 42% | 1013.2 hPa | 0 mm | - | 899 W/m² | - |
| 1777740982 | 11.67° C | 44% | 1013.2 hPa | 0 mm | - | 899 W/m² | - |
| 1777740680 | 12.22° C | 47% | 1013.4 hPa | 0 mm | - | 948 W/m² | - |
| 1777740375 | 12.22° C | 46% | 1013.3 hPa | 0 mm | - | 919 W/m² | - |
| 1777740073 | 11.67° C | 42% | 1013.4 hPa | 0 mm | - | 865 W/m² | - |
| 1777739769 | 11.67° C | 55% | 1013.2 hPa | 0 mm | - | 843 W/m² | - |
* Rain latest hour (hover to see other rain measurements)
** Current wind speed in m/s (hover to see current wind gust speed)